This is the latest recevied weather packets stored in our database for station/object TG5ALY-15. If no packets are shown the sender has not sent any weather packets the latest 10 day(s).
| Time | Temp. | Humidity | Pressure | Rain* | Wind** | Luminosity | Snow |
|---|---|---|---|---|---|---|---|
| 1788145399 | 55° F | 92% | 774.5 mmHg | 0 in | - | 0 W/m² | - |
| 1788144194 | 56° F | 89% | 774.1 mmHg | 0.36 in | - | 0 W/m² | - |
| 1788142992 | 57° F | 92% | 774.1 mmHg | 0.23 in | - | 0 W/m² | - |
| 1788141788 | 58° F | 93% | 773.5 mmHg | 0.07 in | - | 0 W/m² | - |
| 1788140586 | 61° F | 87% | 773.5 mmHg | 0.01 in | - | 0 W/m² | - |
| 1788139384 | 63° F | 82% | 772.9 mmHg | 0 in | - | 0 W/m² | - |
| 1788138180 | 63° F | 81% | 772.9 mmHg | 0 in | - | 0 W/m² | - |
| 1788136980 | 64° F | 79% | 772.5 mmHg | 0 in | - | 0 W/m² | - |
| 1788135776 | 64° F | 78% | 772.2 mmHg | 0 in | - | 0 W/m² | - |
| 1788134576 | 64° F | 74% | 772.2 mmHg | 0 in | - | 0 W/m² | - |
| 1788133372 | 65° F | 73% | 772.2 mmHg | 0 in | - | 0 W/m² | - |
| 1788132172 | 65° F | 72% | 772.2 mmHg | 0 in | - | 0 W/m² | - |
| 1788130970 | 66° F | 71% | 772 mmHg | 0 in | - | 0 W/m² | - |
| 1788129765 | 66° F | 69% | 772 mmHg | 0 in | - | 0 W/m² | - |
| 1788128565 | 67° F | 66% | 772 mmHg | 0 in | - | 0 W/m² | - |
| 1788127362 | 68° F | 64% | 772 mmHg | 0 in | - | 0 W/m² | - |
| 1788126157 | 69° F | 59% | 772 mmHg | 0 in | - | 0 W/m² | - |
| 1788124955 | 72° F | 52% | 772 mmHg | 0 in | - | 0 W/m² | - |
| 1788123754 | 72° F | 50% | 772 mmHg | 0 in | - | 0 W/m² | - |
| 1788122552 | 72° F | 51% | 772 mmHg | 0 in | - | 0 W/m² | - |
| 1788121351 | 72° F | 55% | 772.2 mmHg | 0 in | - | 0 W/m² | - |
| 1788120152 | 70° F | 56% | 772.2 mmHg | 0 in | - | 0 W/m² | - |
| 1788118951 | 72° F | 53% | 772.5 mmHg | 0 in | - | 0 W/m² | - |
| 1788117748 | 72° F | 53% | 772.9 mmHg | 0 in | - | 0 W/m² | - |
| 1788116545 | 73° F | 52% | 772.9 mmHg | 0 in | - | 0 W/m² | - |
* Rain latest hour (hover to see other rain measurements)
** Current wind speed in m/s (hover to see current wind gust speed)